{"data":{"norad_id":59426,"intl_designator":"2024-065F","name":"STARLINK-11089 [DTC]","alt_names":[],"object_type":"PAYLOAD","status":"ACTIVE","operator":null,"country":"US","launch_date":"2024-04-07","launch_site_code":"AFWTR","launch_vehicle":null,"mission":null,"orbit_class":"UNKNOWN","rcs_meters":null,"size_class":null,"mass_kg":null,"dimensions":null,"purposes":["comms"],"wikipedia_slug":null,"has_3d_model":false,"image_url":null,"decayed_at":null,"tle_current":{"epoch":"2026-05-25T02:42:49.728384Z","epoch_age_seconds":74243,"freshness":"FRESH","line1":"1 59426U 24065F   26145.11307556  .00001692  00000+0  18813-4 0  9991","line2":"2 59426  53.1590  77.3509 0000711 106.8783 253.2313 15.69709134123521","mean_motion":15.69709134,"eccentricity":7.11e-5,"inclination_deg":53.159,"raan_deg":77.3509,"arg_perigee_deg":106.8783,"mean_anomaly_deg":253.2313,"bstar":1.8813e-5,"rev_number":12352,"period_min":91.736740827298,"perigee_km":359.25016629258,"apogee_km":360.20829087029,"semimajor_km":6737.8662285814,"source":"CELESTRAK","updated_at":"2026-05-25T13:38:18.944796Z"}}}